Year,Month,Day,Hour,Minute,Value (Times are PST for temperature in C)
2009,09,23,00,00,12.60
2009,09,23,00,01,12.60
2009,09,23,00,02,12.60
2009,09,23,00,03,12.60
2009,09,23,00,04,12.50
2009,09,23,00,05,12.50
2009,09,23,00,06,12.50
2009,09,23,00,07,12.40
2009,09,23,00,08,12.40
2009,09,23,00,09,12.40
2009,09,23,00,10,12.40
2009,09,23,00,11,12.40
2009,09,23,00,12,12.40
2009,09,23,00,13,12.40
2009,09,23,00,14,12.40
2009,09,23,00,15,12.30
2009,09,23,00,16,12.30
2009,09,23,00,17,12.30
2009,09,23,00,18,12.30
2009,09,23,00,19,12.30
2009,09,23,00,20,12.30
2009,09,23,00,21,12.20
2009,09,23,00,22,12.20
2009,09,23,00,23,12.20
2009,09,23,00,24,12.20
2009,09,23,00,25,12.20
2009,09,23,00,26,12.20
2009,09,23,00,27,12.20
2009,09,23,00,28,12.10
2009,09,23,00,29,12.10
2009,09,23,00,30,12.10
2009,09,23,00,31,12.10
2009,09,23,00,32,12.00
2009,09,23,00,33,12.00
2009,09,23,00,34,12.00
2009,09,23,00,35,11.90
2009,09,23,00,36,11.90
2009,09,23,00,37,11.90
2009,09,23,00,38,11.90
2009,09,23,00,39,11.90
2009,09,23,00,40,11.90
2009,09,23,00,41,11.80
2009,09,23,00,42,11.80
2009,09,23,00,43,11.80
2009,09,23,00,44,11.80
2009,09,23,00,45,11.80
2009,09,23,00,46,11.80
2009,09,23,00,47,11.70
2009,09,23,00,48,11.70
2009,09,23,00,49,11.70
2009,09,23,00,50,11.70
2009,09,23,00,51,11.70
2009,09,23,00,52,11.70
2009,09,23,00,53,11.70
2009,09,23,00,54,11.70
2009,09,23,00,55,11.70
2009,09,23,00,56,11.60
2009,09,23,00,57,11.60
2009,09,23,00,58,11.60
2009,09,23,00,59,11.60
2009,09,23,01,00,11.50
2009,09,23,01,01,11.50
2009,09,23,01,02,11.40
2009,09,23,01,03,11.40
2009,09,23,01,04,11.40
2009,09,23,01,05,11.40
2009,09,23,01,06,11.30
2009,09,23,01,07,11.30
2009,09,23,01,08,11.30
2009,09,23,01,09,11.30
2009,09,23,01,10,11.30
2009,09,23,01,11,11.30
2009,09,23,01,12,11.30
2009,09,23,01,13,11.30
2009,09,23,01,14,11.30
2009,09,23,01,15,11.30
2009,09,23,01,16,11.30
2009,09,23,01,17,11.20
2009,09,23,01,18,11.20
2009,09,23,01,19,11.20
2009,09,23,01,20,11.20
2009,09,23,01,21,11.20
2009,09,23,01,22,11.10
2009,09,23,01,23,11.10
2009,09,23,01,24,11.10
2009,09,23,01,25,11.10
2009,09,23,01,26,11.10
2009,09,23,01,27,11.10
2009,09,23,01,28,11.10
2009,09,23,01,29,11.00
2009,09,23,01,30,11.00
2009,09,23,01,31,11.00
2009,09,23,01,32,11.00
2009,09,23,01,33,10.90
2009,09,23,01,34,10.90
2009,09,23,01,35,10.90
2009,09,23,01,36,10.90
2009,09,23,01,37,10.90
2009,09,23,01,38,10.90
2009,09,23,01,39,10.90
2009,09,23,01,40,10.90
2009,09,23,01,41,10.80
2009,09,23,01,42,10.80
2009,09,23,01,43,10.80
2009,09,23,01,44,10.80
2009,09,23,01,45,10.80
2009,09,23,01,46,10.80
2009,09,23,01,47,10.70
2009,09,23,01,48,10.70
2009,09,23,01,49,10.70
2009,09,23,01,50,10.70
2009,09,23,01,51,10.70
2009,09,23,01,52,10.70
2009,09,23,01,53,10.60
2009,09,23,01,54,10.60
2009,09,23,01,55,10.60
2009,09,23,01,56,10.60
2009,09,23,01,57,10.60
2009,09,23,01,58,10.60
2009,09,23,01,59,10.60
2009,09,23,02,00,10.60
2009,09,23,02,01,10.60
2009,09,23,02,02,10.60
2009,09,23,02,03,10.60
2009,09,23,02,04,10.70
2009,09,23,02,05,10.70
2009,09,23,02,06,10.70
2009,09,23,02,07,10.70
2009,09,23,02,08,10.70
2009,09,23,02,09,10.70
2009,09,23,02,10,10.70
2009,09,23,02,11,10.70
2009,09,23,02,12,10.70
2009,09,23,02,13,10.70
2009,09,23,02,14,10.80
2009,09,23,02,15,10.70
2009,09,23,02,16,10.80
2009,09,23,02,17,10.70
2009,09,23,02,18,10.70
2009,09,23,02,19,10.70
2009,09,23,02,20,10.70
2009,09,23,02,21,10.70
2009,09,23,02,22,10.70
2009,09,23,02,23,10.70
2009,09,23,02,24,10.60
2009,09,23,02,25,10.60
2009,09,23,02,26,10.60
2009,09,23,02,27,10.60
2009,09,23,02,28,10.60
2009,09,23,02,29,10.60
2009,09,23,02,30,10.60
2009,09,23,02,31,10.50
2009,09,23,02,32,10.50
2009,09,23,02,33,10.50
2009,09,23,02,34,10.40
2009,09,23,02,35,10.40
2009,09,23,02,36,10.40
2009,09,23,02,37,10.40
2009,09,23,02,38,10.40
2009,09,23,02,39,10.40
2009,09,23,02,40,10.30
2009,09,23,02,41,10.30
2009,09,23,02,42,10.30
2009,09,23,02,43,10.30
2009,09,23,02,44,10.30
2009,09,23,02,45,10.30
2009,09,23,02,46,10.30
2009,09,23,02,47,10.20
2009,09,23,02,48,10.20
2009,09,23,02,49,10.20
2009,09,23,02,50,10.20
2009,09,23,02,51,10.10
2009,09,23,02,52,10.10
2009,09,23,02,53,10.10
2009,09,23,02,54,10.10
2009,09,23,02,55,10.10
2009,09,23,02,56,10.00
2009,09,23,02,57,10.00
2009,09,23,02,58,10.00
2009,09,23,02,59,10.00
2009,09,23,03,00,10.00
2009,09,23,03,01,9.90
2009,09,23,03,02,9.90
2009,09,23,03,03,9.90
2009,09,23,03,04,9.90
2009,09,23,03,05,9.90
2009,09,23,03,06,9.90
2009,09,23,03,07,9.90
2009,09,23,03,08,9.90
2009,09,23,03,09,9.90
2009,09,23,03,10,9.90
2009,09,23,03,11,9.90
2009,09,23,03,12,10.00
2009,09,23,03,13,10.00
2009,09,23,03,14,9.90
2009,09,23,03,15,9.90
2009,09,23,03,16,9.90
2009,09,23,03,17,9.90
2009,09,23,03,18,9.90
2009,09,23,03,19,9.90
2009,09,23,03,20,9.90
2009,09,23,03,21,9.90
2009,09,23,03,22,9.90
2009,09,23,03,23,9.90
2009,09,23,03,24,9.90
2009,09,23,03,25,9.90
2009,09,23,03,26,9.90
2009,09,23,03,27,9.90
2009,09,23,03,28,9.90
2009,09,23,03,29,9.80
2009,09,23,03,30,9.80
2009,09,23,03,31,9.80
2009,09,23,03,32,9.80
2009,09,23,03,33,9.80
2009,09,23,03,34,9.80
2009,09,23,03,35,9.80
2009,09,23,03,36,9.80
2009,09,23,03,37,9.80
2009,09,23,03,38,9.80
2009,09,23,03,39,9.80
2009,09,23,03,40,9.80
2009,09,23,03,41,9.80
2009,09,23,03,42,9.80
2009,09,23,03,43,9.80
2009,09,23,03,44,9.80
2009,09,23,03,45,9.80
2009,09,23,03,46,9.80
2009,09,23,03,47,9.80
2009,09,23,03,48,9.80
2009,09,23,03,49,9.80
2009,09,23,03,50,9.80
2009,09,23,03,51,9.80
2009,09,23,03,52,9.70
2009,09,23,03,53,9.70
2009,09,23,03,54,9.70
2009,09,23,03,55,9.70
2009,09,23,03,56,9.60
2009,09,23,03,57,9.60
2009,09,23,03,58,9.60
2009,09,23,03,59,9.50
2009,09,23,04,00,9.40
2009,09,23,04,01,9.40
2009,09,23,04,02,9.40
2009,09,23,04,03,9.30
2009,09,23,04,05,9.30
2009,09,23,04,06,9.30
2009,09,23,04,07,9.30
2009,09,23,04,08,9.30
2009,09,23,04,09,9.30
2009,09,23,04,10,9.30
2009,09,23,04,11,9.30
2009,09,23,04,12,9.30
2009,09,23,04,13,9.30
2009,09,23,04,14,9.30
2009,09,23,04,15,9.30
2009,09,23,04,16,9.30
2009,09,23,04,17,9.30
2009,09,23,04,18,9.30
2009,09,23,04,19,9.30
2009,09,23,04,20,9.30
2009,09,23,04,21,9.30
2009,09,23,04,22,9.30
2009,09,23,04,23,9.30
2009,09,23,04,24,9.30
2009,09,23,04,25,9.30
2009,09,23,04,26,9.30
2009,09,23,04,27,9.30
2009,09,23,04,28,9.30
2009,09,23,04,29,9.30
2009,09,23,04,30,9.20
2009,09,23,04,31,9.20
2009,09,23,04,32,9.20
2009,09,23,04,33,9.20
2009,09,23,04,34,9.10
2009,09,23,04,35,9.10
2009,09,23,04,36,9.10
2009,09,23,04,37,9.10
2009,09,23,04,38,9.10
2009,09,23,04,39,9.10
2009,09,23,04,40,9.10
2009,09,23,04,41,9.20
2009,09,23,04,42,9.20
2009,09,23,04,43,9.20
2009,09,23,04,44,9.20
2009,09,23,04,45,9.20
2009,09,23,04,46,9.30
2009,09,23,04,47,9.30
2009,09,23,04,48,9.30
2009,09,23,04,49,9.20
2009,09,23,04,50,9.20
2009,09,23,04,51,9.20
2009,09,23,04,52,9.20
2009,09,23,04,53,9.20
2009,09,23,04,54,9.10
2009,09,23,04,55,9.10
2009,09,23,04,56,9.10
2009,09,23,04,57,9.10
2009,09,23,04,58,9.10
2009,09,23,04,59,9.00
2009,09,23,05,00,9.00
2009,09,23,05,01,8.90
2009,09,23,05,02,8.90
2009,09,23,05,03,8.90
2009,09,23,05,04,8.90
2009,09,23,05,05,8.90
2009,09,23,05,06,8.90
2009,09,23,05,07,8.80
2009,09,23,05,08,8.80
2009,09,23,05,09,8.80
2009,09,23,05,10,8.80
2009,09,23,05,11,8.80
2009,09,23,05,12,8.80
2009,09,23,05,13,8.80
2009,09,23,05,14,8.70
2009,09,23,05,15,8.70
2009,09,23,05,16,8.70
2009,09,23,05,17,8.70
2009,09,23,05,18,8.70
2009,09,23,05,19,8.70
2009,09,23,05,20,8.70
2009,09,23,05,21,8.60
2009,09,23,05,22,8.60
2009,09,23,05,23,8.60
2009,09,23,05,24,8.60
2009,09,23,05,25,8.60
2009,09,23,05,26,8.60
2009,09,23,05,27,8.60
2009,09,23,05,28,8.60
2009,09,23,05,29,8.60
2009,09,23,05,30,8.60
2009,09,23,05,31,8.50
2009,09,23,05,32,8.50
2009,09,23,05,33,8.50
2009,09,23,05,34,8.50
2009,09,23,05,35,8.50
2009,09,23,05,36,8.50
2009,09,23,05,37,8.50
2009,09,23,05,38,8.50
2009,09,23,05,39,8.50
2009,09,23,05,40,8.50
2009,09,23,05,41,8.50
2009,09,23,05,42,8.50
2009,09,23,05,43,8.50
2009,09,23,05,44,8.40
2009,09,23,05,45,8.40
2009,09,23,05,46,8.40
2009,09,23,05,47,8.40
2009,09,23,05,48,8.40
2009,09,23,05,49,8.40
2009,09,23,05,50,8.40
2009,09,23,05,51,8.40
2009,09,23,05,52,8.40
2009,09,23,05,53,8.40
2009,09,23,05,54,8.40
2009,09,23,05,55,8.40
2009,09,23,05,56,8.40
2009,09,23,05,57,8.30
2009,09,23,05,58,8.30
2009,09,23,05,59,8.30
2009,09,23,06,00,8.30
2009,09,23,06,01,8.30
2009,09,23,06,02,8.30
2009,09,23,06,03,8.30
2009,09,23,06,04,8.30
2009,09,23,06,05,8.30
2009,09,23,06,06,8.30
2009,09,23,06,07,8.30
2009,09,23,06,08,8.30
2009,09,23,06,09,8.30
2009,09,23,06,10,8.30
2009,09,23,06,11,8.30
2009,09,23,06,12,8.30
2009,09,23,06,13,8.30
2009,09,23,06,14,8.30
2009,09,23,06,15,8.30
2009,09,23,06,16,8.30
2009,09,23,06,17,8.40
2009,09,23,06,18,8.40
2009,09,23,06,19,8.40
2009,09,23,06,20,8.50
2009,09,23,06,21,8.50
2009,09,23,06,22,8.50
2009,09,23,06,23,8.50
2009,09,23,06,24,8.60
2009,09,23,06,25,8.50
2009,09,23,06,26,8.50
2009,09,23,06,27,8.50
2009,09,23,06,28,8.50
2009,09,23,06,29,8.40
2009,09,23,06,30,8.40
2009,09,23,06,31,8.40
2009,09,23,06,32,8.40
2009,09,23,06,33,8.40
2009,09,23,06,34,8.40
2009,09,23,06,35,8.40
2009,09,23,06,36,8.40
2009,09,23,06,37,8.40
2009,09,23,06,38,8.40
2009,09,23,06,39,8.40
2009,09,23,06,40,8.30
2009,09,23,06,41,8.30
2009,09,23,06,42,8.30
2009,09,23,06,43,8.30
2009,09,23,06,44,8.30
2009,09,23,06,45,8.30
2009,09,23,06,46,8.20
2009,09,23,06,47,8.20
2009,09,23,06,48,8.20
2009,09,23,06,49,8.20
2009,09,23,06,50,8.20
2009,09,23,06,51,8.10
2009,09,23,06,52,8.10
2009,09,23,06,53,8.10
2009,09,23,06,54,8.10
2009,09,23,06,55,8.00
2009,09,23,06,56,8.00
2009,09,23,06,57,8.00
2009,09,23,06,58,8.00
2009,09,23,06,59,8.00
2009,09,23,07,00,8.00
2009,09,23,07,01,8.00
2009,09,23,07,02,8.00
2009,09,23,07,03,8.00
2009,09,23,07,04,8.00
2009,09,23,07,05,8.00
2009,09,23,07,06,8.00
2009,09,23,07,07,8.00
2009,09,23,07,08,8.00
2009,09,23,07,09,8.00
2009,09,23,07,10,8.00
2009,09,23,07,11,8.00
2009,09,23,07,12,8.00
2009,09,23,07,13,8.00
2009,09,23,07,14,8.10
2009,09,23,07,15,8.10
2009,09,23,07,16,8.10
2009,09,23,07,17,8.10
2009,09,23,07,18,8.10
2009,09,23,07,19,8.20
2009,09,23,07,20,8.20
2009,09,23,07,21,8.20
2009,09,23,07,22,8.20
2009,09,23,07,23,8.20
2009,09,23,07,24,8.20
2009,09,23,07,25,8.20
2009,09,23,07,26,8.10
2009,09,23,07,27,8.10
2009,09,23,07,28,8.10
2009,09,23,07,29,8.10
2009,09,23,07,30,8.10
2009,09,23,07,31,8.10
2009,09,23,07,32,8.10
2009,09,23,07,33,8.20
2009,09,23,07,34,8.20
2009,09,23,07,35,8.20
2009,09,23,07,36,8.20
2009,09,23,07,37,8.20
2009,09,23,07,38,8.30
2009,09,23,07,39,8.30
2009,09,23,07,40,8.30
2009,09,23,07,41,8.40
2009,09,23,07,42,8.40
2009,09,23,07,43,8.50
2009,09,23,07,44,8.60
2009,09,23,07,45,8.60
2009,09,23,07,46,8.70
2009,09,23,07,47,8.70
2009,09,23,07,48,8.80
2009,09,23,07,49,8.80
2009,09,23,07,50,8.80
2009,09,23,07,51,8.80
2009,09,23,07,52,8.80
2009,09,23,07,53,8.90
2009,09,23,07,54,8.90
2009,09,23,07,55,8.90
2009,09,23,07,56,8.90
2009,09,23,07,57,8.90
2009,09,23,07,58,8.90
2009,09,23,07,59,8.90
2009,09,23,08,00,8.90
2009,09,23,08,01,9.00
2009,09,23,08,02,9.00
2009,09,23,08,03,9.10
2009,09,23,08,04,9.10
2009,09,23,08,05,9.10
2009,09,23,08,06,9.20
2009,09,23,08,07,9.20
2009,09,23,08,08,9.30
2009,09,23,08,09,9.30
2009,09,23,08,10,9.30
2009,09,23,08,11,9.40
2009,09,23,08,12,9.40
2009,09,23,08,13,9.40
2009,09,23,08,14,9.50
2009,09,23,08,15,9.50
2009,09,23,08,16,9.50
2009,09,23,08,17,9.60
2009,09,23,08,18,9.60
2009,09,23,08,19,9.60
2009,09,23,08,20,9.60
2009,09,23,08,21,9.70
2009,09,23,08,22,9.70
2009,09,23,08,23,9.80
2009,09,23,08,24,9.80
2009,09,23,08,25,9.80
2009,09,23,08,26,9.90
2009,09,23,08,27,9.90
2009,09,23,08,28,9.90
2009,09,23,08,29,9.90
2009,09,23,08,30,10.00
2009,09,23,08,31,10.00
2009,09,23,08,32,10.00
2009,09,23,08,33,10.10
2009,09,23,08,34,10.10
2009,09,23,08,35,10.10
2009,09,23,08,36,10.20
2009,09,23,08,37,10.20
2009,09,23,08,38,10.20
2009,09,23,08,39,10.30
2009,09,23,08,40,10.30
2009,09,23,08,41,10.30
2009,09,23,08,42,10.30
2009,09,23,08,43,10.40
2009,09,23,08,44,10.40
2009,09,23,08,45,10.50
2009,09,23,08,46,10.50
2009,09,23,08,47,10.60
2009,09,23,08,48,10.70
2009,09,23,08,49,10.70
2009,09,23,08,50,10.80
2009,09,23,08,51,10.80
2009,09,23,08,52,10.90
2009,09,23,08,53,11.00
2009,09,23,08,54,11.10
2009,09,23,08,55,11.10
2009,09,23,08,56,11.20
2009,09,23,08,57,11.30
2009,09,23,08,58,11.40
2009,09,23,08,59,11.40
2009,09,23,09,00,11.50
2009,09,23,09,01,11.60
2009,09,23,09,02,11.70
2009,09,23,09,03,11.80
2009,09,23,09,04,11.90
2009,09,23,09,05,12.00
2009,09,23,09,06,12.10
2009,09,23,09,07,12.20
2009,09,23,09,08,12.30
2009,09,23,09,09,12.40
2009,09,23,09,10,12.60
2009,09,23,09,11,12.70
2009,09,23,09,12,12.90
2009,09,23,09,13,13.00
2009,09,23,09,14,13.20
2009,09,23,09,15,13.30
2009,09,23,09,16,13.50
2009,09,23,09,17,13.60
2009,09,23,09,18,13.70
2009,09,23,09,19,13.80
2009,09,23,09,20,13.90
2009,09,23,09,21,13.90
2009,09,23,09,22,14.00
2009,09,23,09,23,14.10
2009,09,23,09,24,14.10
2009,09,23,09,25,14.20
2009,09,23,09,26,14.30
2009,09,23,09,27,14.30
2009,09,23,09,28,14.40
2009,09,23,09,29,14.40
2009,09,23,09,30,14.50
2009,09,23,09,31,14.60
2009,09,23,09,32,14.60
2009,09,23,09,33,14.70
2009,09,23,09,34,14.80
2009,09,23,09,35,14.90
2009,09,23,09,36,15.00
2009,09,23,09,37,15.00
2009,09,23,09,38,15.00
2009,09,23,09,39,15.10
2009,09,23,09,40,15.20
2009,09,23,09,41,15.30
2009,09,23,09,42,15.40
2009,09,23,09,43,15.50
2009,09,23,09,44,15.60
2009,09,23,09,45,15.70
2009,09,23,09,46,15.70
2009,09,23,09,47,15.80
2009,09,23,09,48,15.90
2009,09,23,09,49,16.00
2009,09,23,09,50,16.10
2009,09,23,09,51,16.20
2009,09,23,09,52,16.30
2009,09,23,09,53,16.40
2009,09,23,09,54,16.60
2009,09,23,09,55,16.70
2009,09,23,09,56,16.80
2009,09,23,09,57,16.90
2009,09,23,09,58,16.90
2009,09,23,09,59,17.00
2009,09,23,10,00,17.10
2009,09,23,10,01,17.10
2009,09,23,10,02,17.10
2009,09,23,10,03,17.20
2009,09,23,10,04,17.20
2009,09,23,10,05,17.20
2009,09,23,10,06,17.30
2009,09,23,10,07,17.30
2009,09,23,10,08,17.40
2009,09,23,10,09,17.40
2009,09,23,10,10,17.50
2009,09,23,10,11,17.50
2009,09,23,10,12,17.60
2009,09,23,10,13,17.70
2009,09,23,10,14,17.80
2009,09,23,10,15,17.90
2009,09,23,10,16,18.00
2009,09,23,10,17,18.20
2009,09,23,10,18,18.30
2009,09,23,10,19,18.40
2009,09,23,10,20,18.50
2009,09,23,10,21,18.60
2009,09,23,10,22,18.70
2009,09,23,10,23,18.80
2009,09,23,10,24,18.90
2009,09,23,10,25,19.10
2009,09,23,10,26,19.20
2009,09,23,10,27,19.30
2009,09,23,10,28,19.40
2009,09,23,10,29,19.60
2009,09,23,10,30,19.80
2009,09,23,10,31,19.90
2009,09,23,10,32,20.00
2009,09,23,10,33,20.10
2009,09,23,10,34,20.20
2009,09,23,10,35,20.30
2009,09,23,10,36,20.40
2009,09,23,10,37,20.50
2009,09,23,10,38,20.60
2009,09,23,10,39,20.70
2009,09,23,10,40,20.80
2009,09,23,10,41,20.90
2009,09,23,10,42,21.00
2009,09,23,10,43,21.00
2009,09,23,10,44,21.10
2009,09,23,10,45,21.20
2009,09,23,10,46,21.20
2009,09,23,10,47,21.30
2009,09,23,10,48,21.30
2009,09,23,10,49,21.40
2009,09,23,10,50,21.40
2009,09,23,10,51,21.50
2009,09,23,10,52,21.50
2009,09,23,10,53,21.60
2009,09,23,10,54,21.60
2009,09,23,10,55,21.70
2009,09,23,10,56,21.80
2009,09,23,10,57,21.90
2009,09,23,10,58,22.00
2009,09,23,10,59,22.10
2009,09,23,11,00,22.20
2009,09,23,11,01,22.30
2009,09,23,11,02,22.40
2009,09,23,11,03,22.60
2009,09,23,11,04,22.70
2009,09,23,11,05,22.80
2009,09,23,11,06,22.90
2009,09,23,11,07,23.00
2009,09,23,11,08,23.10
2009,09,23,11,09,23.10
2009,09,23,11,10,23.20
2009,09,23,11,11,23.20
2009,09,23,11,12,23.30
2009,09,23,11,13,23.30
2009,09,23,11,14,23.40
2009,09,23,11,15,23.60
2009,09,23,11,16,23.70
2009,09,23,11,17,23.80
2009,09,23,11,18,23.90
2009,09,23,11,19,24.00
2009,09,23,11,20,24.10
2009,09,23,11,21,24.10
2009,09,23,11,22,24.20
2009,09,23,11,23,24.20
2009,09,23,11,24,24.30
2009,09,23,11,25,24.20
2009,09,23,11,26,24.20
2009,09,23,11,27,24.20
2009,09,23,11,28,24.20
2009,09,23,11,29,24.30
2009,09,23,11,30,24.30
2009,09,23,11,31,24.30
2009,09,23,11,32,24.30
2009,09,23,11,33,24.30
2009,09,23,11,34,24.30
2009,09,23,11,35,24.40
2009,09,23,11,36,24.40
2009,09,23,11,37,24.50
2009,09,23,11,38,24.60
2009,09,23,11,39,24.60
2009,09,23,11,40,24.70
2009,09,23,11,41,24.80
2009,09,23,11,42,24.80
2009,09,23,11,43,24.80
2009,09,23,11,44,24.90
2009,09,23,11,45,24.90
2009,09,23,11,46,24.90
2009,09,23,11,47,24.90
2009,09,23,11,48,25.00
2009,09,23,11,49,25.00
2009,09,23,11,50,25.10
2009,09,23,11,51,25.20
2009,09,23,11,52,25.20
2009,09,23,11,53,25.30
2009,09,23,11,54,25.40
2009,09,23,11,55,25.50
2009,09,23,11,56,25.60
2009,09,23,11,57,25.70
2009,09,23,11,58,25.80
2009,09,23,11,59,25.90
2009,09,23,12,00,26.00
2009,09,23,12,01,26.10
2009,09,23,12,02,26.10
2009,09,23,12,03,26.20
2009,09,23,12,04,26.30
2009,09,23,12,05,26.40
2009,09,23,12,06,26.50
2009,09,23,12,07,26.50
2009,09,23,12,08,26.60
2009,09,23,12,09,26.70
2009,09,23,12,10,26.80
2009,09,23,12,11,26.80
2009,09,23,12,12,26.80
2009,09,23,12,13,26.70
2009,09,23,12,14,26.70
2009,09,23,12,15,26.70
2009,09,23,12,16,26.70
2009,09,23,12,17,26.70
2009,09,23,12,18,26.70
2009,09,23,12,19,26.70
2009,09,23,12,20,26.60
2009,09,23,12,21,26.60
2009,09,23,12,22,26.60
2009,09,23,12,23,26.60
2009,09,23,12,24,26.60
2009,09,23,12,25,26.60
2009,09,23,12,26,26.60
2009,09,23,12,27,26.60
2009,09,23,12,28,26.60
2009,09,23,12,29,26.60
2009,09,23,12,30,26.60
2009,09,23,12,31,26.60
2009,09,23,12,32,26.70
2009,09,23,12,33,26.70
2009,09,23,12,34,26.70
2009,09,23,12,35,26.70
2009,09,23,12,36,26.70
2009,09,23,12,37,26.80
2009,09,23,12,38,26.80
2009,09,23,12,39,26.90
2009,09,23,12,40,26.90
2009,09,23,12,41,26.90
2009,09,23,12,42,26.90
2009,09,23,12,43,26.90
2009,09,23,12,44,26.90
2009,09,23,12,45,26.90
2009,09,23,12,46,26.90
2009,09,23,12,47,26.90
2009,09,23,12,48,27.00
2009,09,23,12,49,27.00
2009,09,23,12,50,27.10
2009,09,23,12,51,27.20
2009,09,23,12,52,27.30
2009,09,23,12,53,27.30
2009,09,23,12,54,27.30
2009,09,23,12,55,27.40
2009,09,23,12,56,27.50
2009,09,23,12,57,27.50
2009,09,23,12,58,27.50
2009,09,23,12,59,27.50
2009,09,23,13,00,27.50
2009,09,23,13,01,27.50
2009,09,23,13,02,27.40
2009,09,23,13,03,27.40
2009,09,23,13,04,27.30
2009,09,23,13,05,27.30
2009,09,23,13,06,27.30
2009,09,23,13,07,27.30
2009,09,23,13,08,27.30
2009,09,23,13,09,27.20
2009,09,23,13,10,27.00
2009,09,23,13,11,26.80
2009,09,23,13,12,26.60
2009,09,23,13,13,26.40
2009,09,23,13,14,26.20
2009,09,23,13,15,26.00
2009,09,23,13,16,25.90
2009,09,23,13,17,25.80
2009,09,23,13,18,25.70
2009,09,23,13,19,25.60
2009,09,23,13,20,25.60
2009,09,23,13,21,25.50
2009,09,23,13,22,25.50
2009,09,23,13,23,25.40
2009,09,23,13,24,25.40
2009,09,23,13,25,25.50
2009,09,23,13,26,25.50
2009,09,23,13,27,25.50
2009,09,23,13,28,25.50
2009,09,23,13,29,25.50
2009,09,23,13,30,25.60
2009,09,23,13,31,25.60
2009,09,23,13,32,25.60
2009,09,23,13,33,25.60
2009,09,23,13,34,25.70
2009,09,23,13,35,25.70
2009,09,23,13,36,25.70
2009,09,23,13,37,25.70
2009,09,23,13,38,25.70
2009,09,23,13,39,25.70
2009,09,23,13,40,25.90
2009,09,23,13,41,25.90
2009,09,23,13,42,25.90
2009,09,23,13,43,25.90
2009,09,23,13,44,25.90
2009,09,23,13,45,25.80
2009,09,23,13,46,25.70
2009,09,23,13,47,25.70
2009,09,23,13,48,25.60
2009,09,23,13,49,25.60
2009,09,23,13,50,25.70
2009,09,23,13,51,25.70
2009,09,23,13,52,25.60
2009,09,23,13,53,25.70
2009,09,23,13,54,25.80
2009,09,23,13,55,25.90
2009,09,23,13,56,25.90
2009,09,23,13,57,25.90
2009,09,23,13,58,25.90
2009,09,23,13,59,25.90
2009,09,23,14,00,26.00
2009,09,23,14,01,26.10
2009,09,23,14,02,26.20
2009,09,23,14,03,26.30
2009,09,23,14,04,26.30
2009,09,23,14,05,26.30
2009,09,23,14,06,26.30
2009,09,23,14,07,26.30
2009,09,23,14,08,26.30
2009,09,23,14,09,26.30
2009,09,23,14,10,26.30
2009,09,23,14,11,26.30
2009,09,23,14,12,26.40
2009,09,23,14,13,26.30
2009,09,23,14,14,26.30
2009,09,23,14,15,26.30
2009,09,23,14,16,26.40
2009,09,23,14,17,26.40
2009,09,23,14,18,26.40
2009,09,23,14,19,26.50
2009,09,23,14,20,26.60
2009,09,23,14,21,26.50
2009,09,23,14,22,26.40
2009,09,23,14,23,26.40
2009,09,23,14,24,26.50
2009,09,23,14,25,26.50
2009,09,23,14,26,26.50
2009,09,23,14,27,26.40
2009,09,23,14,28,26.50
2009,09,23,14,29,26.60
2009,09,23,14,30,26.60
2009,09,23,14,31,26.50
2009,09,23,14,32,26.40
2009,09,23,14,33,26.30
2009,09,23,14,34,26.30
2009,09,23,14,35,26.30
2009,09,23,14,36,26.30
2009,09,23,14,37,26.30
2009,09,23,14,38,26.30
2009,09,23,14,39,26.40
2009,09,23,14,40,26.40
2009,09,23,14,41,26.40
2009,09,23,14,42,26.40
2009,09,23,14,43,26.40
2009,09,23,14,44,26.40
2009,09,23,14,45,26.50
2009,09,23,14,46,26.60
2009,09,23,14,47,26.60
2009,09,23,14,48,26.60
2009,09,23,14,49,26.60
2009,09,23,14,50,26.60
2009,09,23,14,51,26.60
2009,09,23,14,52,26.60
2009,09,23,14,53,26.60
2009,09,23,14,54,26.60
2009,09,23,14,55,26.60
2009,09,23,14,56,26.40
2009,09,23,14,57,26.30
2009,09,23,14,58,26.20
2009,09,23,14,59,26.30
2009,09,23,15,00,26.40
2009,09,23,15,01,26.50
2009,09,23,15,02,26.50
2009,09,23,15,03,26.50
2009,09,23,15,04,26.40
2009,09,23,15,05,26.40
2009,09,23,15,06,26.40
2009,09,23,15,07,26.50
2009,09,23,15,08,26.50
2009,09,23,15,09,26.50
2009,09,23,15,10,26.40
2009,09,23,15,11,26.30
2009,09,23,15,12,26.20
2009,09,23,15,13,26.20
2009,09,23,15,14,26.20
2009,09,23,15,15,26.30
2009,09,23,15,16,26.40
2009,09,23,15,17,26.40
2009,09,23,15,18,26.40
2009,09,23,15,19,26.40
2009,09,23,15,20,26.40
2009,09,23,15,21,26.40
2009,09,23,15,22,26.40
2009,09,23,15,23,26.40
2009,09,23,15,24,26.30
2009,09,23,15,25,26.30
2009,09,23,15,26,26.20
2009,09,23,15,27,26.10
2009,09,23,15,28,26.10
2009,09,23,15,29,26.10
2009,09,23,15,30,26.00
2009,09,23,15,31,26.00
2009,09,23,15,32,26.00
2009,09,23,15,33,26.00
2009,09,23,15,34,25.90
2009,09,23,15,35,25.90
2009,09,23,15,36,25.80
2009,09,23,15,37,25.90
2009,09,23,15,38,25.90
2009,09,23,15,39,26.00
2009,09,23,15,40,26.10
2009,09,23,15,41,26.20
2009,09,23,15,42,26.20
2009,09,23,15,43,26.20
2009,09,23,15,44,26.00
2009,09,23,15,45,25.90
2009,09,23,15,46,25.90
2009,09,23,15,47,25.90
2009,09,23,15,48,25.90
2009,09,23,15,49,25.90
2009,09,23,15,50,25.90
2009,09,23,15,51,25.90
2009,09,23,15,52,25.90
2009,09,23,15,53,25.90
2009,09,23,15,54,25.80
2009,09,23,15,55,25.80
2009,09,23,15,56,25.70
2009,09,23,15,57,25.70
2009,09,23,15,58,25.70
2009,09,23,15,59,25.70
2009,09,23,16,00,25.70
2009,09,23,16,01,25.80
2009,09,23,16,02,25.80
2009,09,23,16,03,25.70
2009,09,23,16,04,25.80
2009,09,23,16,05,25.80
2009,09,23,16,06,25.80
2009,09,23,16,07,25.80
2009,09,23,16,08,25.70
2009,09,23,16,09,25.70
2009,09,23,16,10,25.60
2009,09,23,16,11,25.60
2009,09,23,16,12,25.50
2009,09,23,16,13,25.40
2009,09,23,16,14,25.50
2009,09,23,16,15,25.50
2009,09,23,16,16,25.50
2009,09,23,16,17,25.50
2009,09,23,16,18,25.50
2009,09,23,16,19,25.50
2009,09,23,16,20,25.60
2009,09,23,16,21,25.60
2009,09,23,16,22,25.50
2009,09,23,16,23,25.50
2009,09,23,16,24,25.40
2009,09,23,16,25,25.50
2009,09,23,16,26,25.60
2009,09,23,16,27,25.60
2009,09,23,16,28,25.70
2009,09,23,16,29,25.70
2009,09,23,16,30,25.80
2009,09,23,16,31,25.80
2009,09,23,16,32,25.80
2009,09,23,16,33,25.80
2009,09,23,16,34,25.70
2009,09,23,16,35,25.60
2009,09,23,16,36,25.60
2009,09,23,16,37,25.50
2009,09,23,16,38,25.40
2009,09,23,16,39,25.40
2009,09,23,16,40,25.40
2009,09,23,16,41,25.40
2009,09,23,16,42,25.30
2009,09,23,16,43,25.30
2009,09,23,16,44,25.20
2009,09,23,16,45,25.10
2009,09,23,16,46,25.10
2009,09,23,16,47,25.10
2009,09,23,16,48,25.10
2009,09,23,16,49,25.10
2009,09,23,16,50,25.10
2009,09,23,16,51,25.20
2009,09,23,16,52,25.20
2009,09,23,16,53,25.20
2009,09,23,16,54,25.20
2009,09,23,16,55,25.20
2009,09,23,16,56,25.20
2009,09,23,16,57,25.20
2009,09,23,16,58,25.10
2009,09,23,16,59,25.10
2009,09,23,17,00,25.20
2009,09,23,17,01,25.20
2009,09,23,17,02,25.20
2009,09,23,17,03,25.20
2009,09,23,17,04,25.20
2009,09,23,17,05,25.20
2009,09,23,17,06,25.10
2009,09,23,17,07,25.00
2009,09,23,17,08,24.90
2009,09,23,17,09,24.90
2009,09,23,17,10,24.90
2009,09,23,17,11,25.00
2009,09,23,17,12,25.00
2009,09,23,17,13,25.00
2009,09,23,17,14,25.10
2009,09,23,17,15,25.10
2009,09,23,17,16,25.00
2009,09,23,17,17,25.00
2009,09,23,17,18,24.90
2009,09,23,17,19,24.80
2009,09,23,17,20,24.70
2009,09,23,17,21,24.60
2009,09,23,17,22,24.60
2009,09,23,17,23,24.60
2009,09,23,17,24,24.60
2009,09,23,17,25,24.50
2009,09,23,17,26,24.50
2009,09,23,17,27,24.50
2009,09,23,17,28,24.40
2009,09,23,17,29,24.40
2009,09,23,17,30,24.30
2009,09,23,17,31,24.30
2009,09,23,17,32,24.20
2009,09,23,17,33,24.10
2009,09,23,17,34,24.10